Time,TemperatureF,DewpointF,PressureIn,WindDirection,WindDirectionDegrees,WindSpeedMPH,WindSpeedGustMPH,Humidity,HourlyPrecipIn,Conditions,Clouds,dailyrainin,SoftwareType,DateUTC
2013-12-11 00:00:00,26.9,23.3,30.38,NE,40,0.0,5.0,86,0.00,,,0.00,Wunderground v.1.15,2013-12-11 06:00:00,
2013-12-11 00:05:00,27.2,23.3,30.38,NE,40,0.0,5.0,85,0.00,,,0.00,Wunderground v.1.15,2013-12-11 06:05:00,
2013-12-11 00:10:00,27.5,23.3,30.38,NE,40,0.0,5.0,84,0.00,,,0.00,Wunderground v.1.15,2013-12-11 06:10:00,
2013-12-11 00:20:00,28.1,23.6,30.38,NE,40,0.0,5.0,83,0.00,,,0.00,Wunderground v.1.15,2013-12-11 06:20:00,
2013-12-11 00:25:00,28.4,23.6,30.38,NE,40,0.0,5.0,82,0.00,,,0.00,Wunderground v.1.15,2013-12-11 06:25:00,
2013-12-11 00:30:00,28.6,23.8,30.38,SE,142,0.0,5.0,82,0.00,,,0.00,Wunderground v.1.15,2013-12-11 06:30:00,
2013-12-11 00:35:00,28.9,24.1,30.38,SE,136,0.0,5.0,82,0.00,,,0.00,Wunderground v.1.15,2013-12-11 06:35:00,
2013-12-11 00:45:00,28.8,24.0,30.38,SE,136,0.0,5.0,82,0.00,,,0.00,Wunderground v.1.15,2013-12-11 06:45:00,
2013-12-11 00:50:00,29.1,24.0,30.38,SSE,148,0.0,5.0,81,0.00,,,0.00,Wunderground v.1.15,2013-12-11 06:50:00,
2013-12-11 00:55:00,29.2,24.1,30.37,SSE,148,0.0,5.0,81,0.00,,,0.00,Wunderground v.1.15,2013-12-11 06:55:00,
2013-12-11 01:00:00,29.0,23.9,30.37,SSE,148,0.0,5.0,81,0.00,,,0.00,Wunderground v.1.15,2013-12-11 07:00:00,
2013-12-11 01:05:00,28.6,23.5,30.37,SSE,148,0.0,5.0,81,0.00,,,0.00,Wunderground v.1.15,2013-12-11 07:05:00,
2013-12-11 01:15:00,28.4,23.6,30.37,SSE,148,0.0,5.0,82,0.00,,,0.00,Wunderground v.1.15,2013-12-11 07:15:00,
2013-12-11 01:20:00,28.4,23.6,30.37,SSE,148,0.0,5.0,82,0.00,,,0.00,Wunderground v.1.15,2013-12-11 07:20:00,
2013-12-11 01:25:00,28.7,23.6,30.37,SSE,148,0.0,5.0,81,0.00,,,0.00,Wunderground v.1.15,2013-12-11 07:25:00,
2013-12-11 01:30:00,28.9,23.5,30.37,SSE,148,0.0,5.0,80,0.00,,,0.00,Wunderground v.1.15,2013-12-11 07:30:00,
2013-12-11 01:35:00,29.0,23.6,30.37,SSE,148,0.0,5.0,80,0.00,,,0.00,Wunderground v.1.15,2013-12-11 07:35:00,
2013-12-11 01:45:00,28.8,23.4,30.37,SSE,148,0.0,5.0,80,0.00,,,0.00,Wunderground v.1.15,2013-12-11 07:45:00,
2013-12-11 01:50:00,28.6,23.5,30.37,SE,146,0.0,5.0,81,0.00,,,0.00,Wunderground v.1.15,2013-12-11 07:50:00,
2013-12-11 01:55:00,28.5,23.4,30.37,SE,146,0.0,5.0,81,0.00,,,0.00,Wunderground v.1.15,2013-12-11 07:55:00,
2013-12-11 02:00:00,28.5,23.4,30.38,SE,146,0.0,5.0,81,0.00,,,0.00,Wunderground v.1.15,2013-12-11 08:00:00,
2013-12-11 02:05:00,28.5,23.4,30.37,SE,146,0.0,5.0,81,0.00,,,0.00,Wunderground v.1.15,2013-12-11 08:05:00,
2013-12-11 02:10:00,28.3,23.5,30.37,SE,146,0.0,5.0,82,0.00,,,0.00,Wunderground v.1.15,2013-12-11 08:10:00,
2013-12-11 02:20:00,28.0,23.5,30.37,SE,146,0.0,5.0,83,0.00,,,0.00,Wunderground v.1.15,2013-12-11 08:20:00,
2013-12-11 02:25:00,27.9,23.4,30.37,SE,146,0.0,5.0,83,0.00,,,0.00,Wunderground v.1.15,2013-12-11 08:25:00,
2013-12-11 02:30:00,27.9,23.4,30.37,SE,146,0.0,5.0,83,0.00,,,0.00,Wunderground v.1.15,2013-12-11 08:30:00,
2013-12-11 02:35:00,27.8,23.3,30.37,SE,143,0.0,5.0,83,0.00,,,0.00,Wunderground v.1.15,2013-12-11 08:35:00,
2013-12-11 02:45:00,27.7,23.5,30.36,SE,143,0.0,5.0,84,0.00,,,0.00,Wunderground v.1.15,2013-12-11 08:45:00,
2013-12-11 02:50:00,27.7,23.5,30.36,SE,143,0.0,5.0,84,0.00,,,0.00,Wunderground v.1.15,2013-12-11 08:50:00,
2013-12-11 02:55:00,27.7,23.2,30.37,SE,143,0.0,5.0,83,0.00,,,0.00,Wunderground v.1.15,2013-12-11 08:55:00,
2013-12-11 03:00:00,27.8,23.3,30.37,SE,143,0.0,5.0,83,0.00,,,0.00,Wunderground v.1.15,2013-12-11 09:00:00,
2013-12-11 03:05:00,27.8,23.3,30.37,SE,143,0.0,5.0,83,0.00,,,0.00,Wunderground v.1.15,2013-12-11 09:05:00,
2013-12-11 03:10:00,27.8,23.3,30.38,SE,143,0.0,5.0,83,0.00,,,0.00,Wunderground v.1.15,2013-12-11 09:10:00,
2013-12-11 03:20:00,27.9,23.4,30.37,SE,143,0.0,5.0,83,0.00,,,0.00,Wunderground v.1.15,2013-12-11 09:20:00,
2013-12-11 03:25:00,27.9,23.7,30.37,SE,143,0.0,5.0,84,0.00,,,0.00,Wunderground v.1.15,2013-12-11 09:25:00,
2013-12-11 03:30:00,27.8,23.3,30.37,SE,143,0.0,5.0,83,0.00,,,0.00,Wunderground v.1.15,2013-12-11 09:30:00,
2013-12-11 03:35:00,27.6,23.4,30.37,SE,143,0.0,5.0,84,0.00,,,0.00,Wunderground v.1.15,2013-12-11 09:35:00,
2013-12-11 03:40:00,27.4,23.2,30.37,SE,143,0.0,5.0,84,0.00,,,0.00,Wunderground v.1.15,2013-12-11 09:40:00,
2013-12-11 03:50:00,27.3,23.4,30.36,SE,143,0.0,5.0,85,0.00,,,0.00,Wunderground v.1.15,2013-12-11 09:50:00,
2013-12-11 03:55:00,27.5,23.6,30.37,SE,143,0.0,5.0,85,0.00,,,0.00,Wunderground v.1.15,2013-12-11 09:55:00,
2013-12-11 04:00:00,27.5,23.6,30.37,SE,143,0.0,5.0,85,0.00,,,0.00,Wunderground v.1.15,2013-12-11 10:00:00,
2013-12-11 04:05:00,27.4,23.5,30.37,SE,143,0.0,5.0,85,0.00,,,0.00,Wunderground v.1.15,2013-12-11 10:05:00,
2013-12-11 04:10:00,27.1,23.2,30.37,SE,143,0.0,5.0,85,0.00,,,0.00,Wunderground v.1.15,2013-12-11 10:10:00,
2013-12-11 04:20:00,27.5,23.6,30.38,SE,143,0.0,5.0,85,0.00,,,0.00,Wunderground v.1.15,2013-12-11 10:20:00,
2013-12-11 04:25:00,27.6,23.7,30.38,SE,143,0.0,5.0,85,0.00,,,0.00,Wunderground v.1.15,2013-12-11 10:25:00,
2013-12-11 04:30:00,27.5,23.6,30.38,SE,143,0.0,5.0,85,0.00,,,0.00,Wunderground v.1.15,2013-12-11 10:30:00,
2013-12-11 04:35:00,27.4,23.5,30.38,SE,143,0.0,5.0,85,0.00,,,0.00,Wunderground v.1.15,2013-12-11 10:35:00,
2013-12-11 04:45:00,27.1,23.2,30.37,SE,143,0.0,5.0,85,0.00,,,0.00,Wunderground v.1.15,2013-12-11 10:45:00,
2013-12-11 04:55:00,26.8,23.2,30.37,SE,143,0.0,5.0,86,0.00,,,0.00,Wunderground v.1.15,2013-12-11 10:55:00,
2013-12-11 05:00:00,26.9,23.3,30.37,SE,143,0.0,5.0,86,0.00,,,0.00,Wunderground v.1.15,2013-12-11 11:00:00,
2013-12-11 05:05:00,27.0,23.4,30.37,SE,143,0.0,5.0,86,0.00,,,0.00,Wunderground v.1.15,2013-12-11 11:05:00,
2013-12-11 05:15:00,27.3,23.7,30.38,SE,143,0.0,5.0,86,0.00,,,0.00,Wunderground v.1.15,2013-12-11 11:15:00,
2013-12-11 05:20:00,27.2,23.6,30.37,SE,143,0.0,5.0,86,0.00,,,0.00,Wunderground v.1.15,2013-12-11 11:20:00,
2013-12-11 05:30:00,27.2,23.6,30.37,SE,143,0.0,5.0,86,0.00,,,0.00,Wunderground v.1.15,2013-12-11 11:30:00,
2013-12-11 05:35:00,26.9,23.3,30.37,SE,143,0.0,5.0,86,0.00,,,0.00,Wunderground v.1.15,2013-12-11 11:35:00,
2013-12-11 05:40:00,26.6,23.3,30.37,SE,143,0.0,5.0,87,0.00,,,0.00,Wunderground v.1.15,2013-12-11 11:40:00,
2013-12-11 05:50:00,26.5,23.4,30.37,SE,143,0.0,5.0,88,0.00,,,0.00,Wunderground v.1.15,2013-12-11 11:50:00,
2013-12-11 05:55:00,26.6,23.5,30.37,SE,143,0.0,5.0,88,0.00,,,0.00,Wunderground v.1.15,2013-12-11 11:55:00,
2013-12-11 06:00:00,26.7,23.6,30.37,SE,143,0.0,5.0,88,0.00,,,0.00,Wunderground v.1.15,2013-12-11 12:00:00,
2013-12-11 06:05:00,26.8,23.7,30.37,SE,143,0.0,5.0,88,0.00,,,0.00,Wunderground v.1.15,2013-12-11 12:05:00,
2013-12-11 06:10:00,26.9,23.5,30.37,SE,143,0.0,5.0,87,0.00,,,0.00,Wunderground v.1.15,2013-12-11 12:10:00,
2013-12-11 06:20:00,26.6,23.3,30.38,SE,143,0.0,5.0,87,0.00,,,0.00,Wunderground v.1.15,2013-12-11 12:20:00,
2013-12-11 06:25:00,26.4,23.3,30.38,SE,143,0.0,5.0,88,0.00,,,0.00,Wunderground v.1.15,2013-12-11 12:25:00,
2013-12-11 06:30:00,26.2,23.1,30.38,SE,143,0.0,5.0,88,0.00,,,0.00,Wunderground v.1.15,2013-12-11 12:30:00,
2013-12-11 06:35:00,26.2,23.1,30.38,SE,143,0.0,5.0,88,0.00,,,0.00,Wunderground v.1.15,2013-12-11 12:35:00,
2013-12-11 06:40:00,26.2,23.4,30.38,SE,143,0.0,5.0,89,0.00,,,0.00,Wunderground v.1.15,2013-12-11 12:40:00,
2013-12-11 06:50:00,26.1,23.3,30.38,SE,143,0.0,5.0,89,0.00,,,0.00,Wunderground v.1.15,2013-12-11 12:50:00,
2013-12-11 06:55:00,26.1,23.0,30.38,SE,143,0.0,5.0,88,0.00,,,0.00,Wunderground v.1.15,2013-12-11 12:55:00,
2013-12-11 07:00:00,26.0,23.2,30.38,SE,143,0.0,5.0,89,0.00,,,0.00,Wunderground v.1.15,2013-12-11 13:00:00,
2013-12-11 07:05:00,26.0,23.2,30.39,SE,143,0.0,5.0,89,0.00,,,0.00,Wunderground v.1.15,2013-12-11 13:05:00,
2013-12-11 07:15:00,26.0,23.2,30.40,SE,143,0.0,5.0,89,0.00,,,0.00,Wunderground v.1.15,2013-12-11 13:15:00,
2013-12-11 07:20:00,26.1,23.3,30.39,SE,143,0.0,5.0,89,0.00,,,0.00,Wunderground v.1.15,2013-12-11 13:20:00,
2013-12-11 07:25:00,26.5,23.7,30.39,SE,143,0.0,5.0,89,0.00,,,0.00,Wunderground v.1.15,2013-12-11 13:25:00,
2013-12-11 07:30:00,26.7,23.6,30.40,SE,143,0.0,5.0,88,0.00,,,0.00,Wunderground v.1.15,2013-12-11 13:30:00,
2013-12-11 07:40:00,26.6,23.5,30.40,SE,143,0.0,5.0,88,0.00,,,0.00,Wunderground v.1.15,2013-12-11 13:40:00,
2013-12-11 07:45:00,26.6,23.5,30.40,SE,143,0.0,5.0,88,0.00,,,0.00,Wunderground v.1.15,2013-12-11 13:45:00,
2013-12-11 07:50:00,26.7,23.9,30.40,SE,143,0.0,5.0,89,0.00,,,0.00,Wunderground v.1.15,2013-12-11 13:50:00,
2013-12-11 07:55:00,26.9,24.1,30.41,SE,143,0.0,5.0,89,0.00,,,0.00,Wunderground v.1.15,2013-12-11 13:55:00,
2013-12-11 08:00:00,27.1,24.3,30.41,SE,143,0.0,5.0,89,0.00,,,0.00,Wunderground v.1.15,2013-12-11 14:00:00,
2013-12-11 08:05:00,27.6,24.8,30.41,SE,143,0.0,5.0,89,0.00,,,0.00,Wunderground v.1.15,2013-12-11 14:05:00,
2013-12-11 08:10:00,28.2,24.8,30.41,SE,143,0.0,5.0,87,0.00,,,0.00,Wunderground v.1.15,2013-12-11 14:10:00,
2013-12-11 08:20:00,29.2,25.8,30.41,SE,129,0.0,5.0,87,0.00,,,0.00,Wunderground v.1.15,2013-12-11 14:20:00,
2013-12-11 08:25:00,29.6,26.2,30.41,SE,129,0.0,5.0,87,0.00,,,0.00,Wunderground v.1.15,2013-12-11 14:25:00,
2013-12-11 08:30:00,30.0,26.3,30.42,ESE,121,0.0,5.0,86,0.00,,,0.00,Wunderground v.1.15,2013-12-11 14:30:00,
2013-12-11 08:35:00,30.6,26.6,30.42,NNE,24,0.0,5.0,85,0.00,,,0.00,Wunderground v.1.15,2013-12-11 14:35:00,
2013-12-11 08:45:00,31.7,26.8,30.43,NNW,333,2.0,5.0,82,0.00,,,0.00,Wunderground v.1.15,2013-12-11 14:45:00,
2013-12-11 08:50:00,32.3,27.1,30.43,WNW,288,1.0,5.0,81,0.00,,,0.00,Wunderground v.1.15,2013-12-11 14:50:00,
2013-12-11 08:55:00,32.6,27.4,30.43,NNW,346,1.0,5.0,81,0.00,,,0.00,Wunderground v.1.15,2013-12-11 14:55:00,
2013-12-11 09:00:00,33.1,27.6,30.44,NNW,338,2.0,2.0,80,0.00,,,0.00,Wunderground v.1.15,2013-12-11 15:00:00,
2013-12-11 09:05:00,33.5,27.4,30.44,NNW,332,2.0,5.0,78,0.00,,,0.00,Wunderground v.1.15,2013-12-11 15:05:00,
2013-12-11 09:15:00,34.6,27.5,30.44,NNW,338,2.0,5.0,75,0.00,,,0.00,Wunderground v.1.15,2013-12-11 15:15:00,
2013-12-11 09:20:00,35.2,27.7,30.45,NNW,335,2.0,2.0,74,0.00,,,0.00,Wunderground v.1.15,2013-12-11 15:20:00,
2013-12-11 09:25:00,35.8,28.3,30.45,NNW,342,1.0,5.0,74,0.00,,,0.00,Wunderground v.1.15,2013-12-11 15:25:00,
2013-12-11 09:30:00,36.5,28.3,30.46,NNW,331,2.0,5.0,72,0.00,,,0.00,Wunderground v.1.15,2013-12-11 15:30:00,
2013-12-11 09:35:00,37.2,28.7,30.46,NW,321,1.0,5.0,71,0.00,,,0.00,Wunderground v.1.15,2013-12-11 15:35:00,
2013-12-11 09:45:00,38.4,28.4,30.47,NNE,17,1.0,5.0,67,0.00,,,0.00,Wunderground v.1.15,2013-12-11 15:45:00,
2013-12-11 09:50:00,39.0,28.2,30.47,North,5,1.0,5.0,65,0.00,,,0.00,Wunderground v.1.15,2013-12-11 15:50:00,
2013-12-11 09:55:00,39.5,28.7,30.47,North,5,1.0,5.0,65,0.00,,,0.00,Wunderground v.1.15,2013-12-11 15:55:00,
2013-12-11 10:00:00,40.2,29.0,30.47,North,5,0.0,5.0,64,0.00,,,0.00,Wunderground v.1.15,2013-12-11 16:00:00,
2013-12-11 10:05:00,41.1,29.8,30.47,North,5,0.0,5.0,64,0.00,,,0.00,Wunderground v.1.15,2013-12-11 16:05:00,
2013-12-11 10:15:00,42.4,29.5,30.46,North,5,0.0,5.0,60,0.00,,,0.00,Wunderground v.1.15,2013-12-11 16:15:00,
2013-12-11 10:20:00,43.2,30.6,30.46,NNE,19,0.0,5.0,61,0.00,,,0.00,Wunderground v.1.15,2013-12-11 16:20:00,
2013-12-11 10:25:00,44.2,29.9,30.46,SSE,155,1.0,5.0,57,0.00,,,0.00,Wunderground v.1.15,2013-12-11 16:25:00,
2013-12-11 10:30:00,44.7,30.8,30.46,SSE,155,1.0,5.0,58,0.00,,,0.00,Wunderground v.1.15,2013-12-11 16:30:00,
2013-12-11 10:35:00,45.2,30.9,30.46,SE,146,1.0,5.0,57,0.00,,,0.00,Wunderground v.1.15,2013-12-11 16:35:00,
2013-12-11 10:40:00,46.0,31.2,30.46,SSE,150,1.0,1.0,56,0.00,,,0.00,Wunderground v.1.15,2013-12-11 16:40:00,
2013-12-11 10:50:00,47.4,29.7,30.45,SE,126,1.0,1.0,50,0.00,,,0.00,Wunderground v.1.15,2013-12-11 16:50:00,
2013-12-11 10:55:00,47.8,30.0,30.45,East,98,1.0,5.0,50,0.00,,,0.00,Wunderground v.1.15,2013-12-11 16:55:00,
2013-12-11 11:00:00,48.3,31.9,30.46,NE,38,1.0,5.0,53,0.00,,,0.00,Wunderground v.1.15,2013-12-11 17:00:00,
2013-12-11 11:05:00,48.7,30.4,30.45,NNE,16,1.0,5.0,49,0.00,,,0.00,Wunderground v.1.15,2013-12-11 17:05:00,
2013-12-11 11:15:00,49.8,30.9,30.45,NNW,327,1.0,5.0,48,0.00,,,0.00,Wunderground v.1.15,2013-12-11 17:15:00,
2013-12-11 11:20:00,50.1,31.2,30.44,NNE,28,1.0,5.0,48,0.00,,,0.00,Wunderground v.1.15,2013-12-11 17:20:00,
2013-12-11 11:25:00,50.4,30.9,30.45,NNW,334,2.0,5.0,47,0.00,,,0.00,Wunderground v.1.15,2013-12-11 17:25:00,
2013-12-11 11:30:00,50.6,32.1,30.45,NNE,30,1.0,5.0,49,0.00,,,0.00,Wunderground v.1.15,2013-12-11 17:30:00,
2013-12-11 11:35:00,50.6,33.1,30.45,East,84,1.0,5.0,51,0.00,,,0.00,Wunderground v.1.15,2013-12-11 17:35:00,
2013-12-11 11:45:00,51.2,31.6,30.44,NE,44,1.0,5.0,47,0.00,,,0.00,Wunderground v.1.15,2013-12-11 17:45:00,
2013-12-11 11:50:00,51.0,32.0,30.44,NE,46,1.0,5.0,48,0.00,,,0.00,Wunderground v.1.15,2013-12-11 17:50:00,
2013-12-11 12:00:00,50.9,31.9,30.44,NNE,12,2.0,2.0,48,0.00,,,0.00,Wunderground v.1.15,2013-12-11 18:00:00,
2013-12-11 12:05:00,51.2,33.7,30.44,ENE,76,2.0,3.0,51,0.00,,,0.00,Wunderground v.1.15,2013-12-11 18:05:00,
2013-12-11 12:15:00,52.0,32.9,30.43,East,88,1.0,2.0,48,0.00,,,0.00,Wunderground v.1.15,2013-12-11 18:15:00,
2013-12-11 12:20:00,52.4,32.2,30.43,NE,46,1.0,1.0,46,0.00,,,0.00,Wunderground v.1.15,2013-12-11 18:20:00,
2013-12-11 12:25:00,52.8,32.0,30.43,NE,49,1.0,5.0,45,0.00,,,0.00,Wunderground v.1.15,2013-12-11 18:25:00,
2013-12-11 12:30:00,53.1,32.3,30.42,NE,55,1.0,5.0,45,0.00,,,0.00,Wunderground v.1.15,2013-12-11 18:30:00,
2013-12-11 12:35:00,53.1,32.3,30.42,NW,318,2.0,5.0,45,0.00,,,0.00,Wunderground v.1.15,2013-12-11 18:35:00,
2013-12-11 12:45:00,53.3,31.9,30.42,North,11,2.0,5.0,44,0.00,,,0.00,Wunderground v.1.15,2013-12-11 18:45:00,
2013-12-11 12:50:00,53.7,31.7,30.42,NNW,338,1.0,5.0,43,0.00,,,0.00,Wunderground v.1.15,2013-12-11 18:50:00,
2013-12-11 12:55:00,54.1,32.1,30.42,ENE,71,1.0,5.0,43,0.00,,,0.00,Wunderground v.1.15,2013-12-11 18:55:00,
2013-12-11 13:00:00,54.3,32.3,30.42,ESE,123,2.0,2.0,43,0.00,,,0.00,Wunderground v.1.15,2013-12-11 19:00:00,
2013-12-11 13:05:00,54.6,31.9,30.42,ESE,117,1.0,5.0,42,0.00,,,0.00,Wunderground v.1.15,2013-12-11 19:05:00,
2013-12-11 13:15:00,55.1,32.4,30.41,ENE,57,1.0,2.0,42,0.00,,,0.00,Wunderground v.1.15,2013-12-11 19:15:00,
2013-12-11 13:20:00,55.2,31.3,30.41,ENE,65,1.0,5.0,40,0.00,,,0.00,Wunderground v.1.15,2013-12-11 19:20:00,
2013-12-11 13:25:00,55.5,31.5,30.42,NE,55,1.0,5.0,40,0.00,,,0.00,Wunderground v.1.15,2013-12-11 19:25:00,
2013-12-11 13:30:00,55.5,31.5,30.41,NNE,14,2.0,2.0,40,0.00,,,0.00,Wunderground v.1.15,2013-12-11 19:30:00,
2013-12-11 13:35:00,55.7,31.1,30.41,SW,221,2.0,5.0,39,0.00,,,0.00,Wunderground v.1.15,2013-12-11 19:35:00,
2013-12-11 13:45:00,56.0,31.4,30.41,ENE,74,2.0,5.0,39,0.00,,,0.00,Wunderground v.1.15,2013-12-11 19:45:00,
2013-12-11 13:50:00,56.3,31.6,30.41,SE,145,1.0,1.0,39,0.00,,,0.00,Wunderground v.1.15,2013-12-11 19:50:00,
2013-12-11 13:55:00,56.8,31.4,30.41,NW,323,1.0,4.0,38,0.00,,,0.00,Wunderground v.1.15,2013-12-11 19:55:00,
2013-12-11 14:00:00,56.8,30.8,30.41,WNW,293,2.0,2.0,37,0.00,,,0.00,Wunderground v.1.15,2013-12-11 20:00:00,
2013-12-11 14:05:00,56.8,30.8,30.41,North,11,2.0,5.0,37,0.00,,,0.00,Wunderground v.1.15,2013-12-11 20:05:00,
2013-12-11 14:15:00,57.4,31.3,30.41,North,355,1.0,5.0,37,0.00,,,0.00,Wunderground v.1.15,2013-12-11 20:15:00,
2013-12-11 14:20:00,57.7,30.9,30.41,WNW,295,1.0,5.0,36,0.00,,,0.00,Wunderground v.1.15,2013-12-11 20:20:00,
2013-12-11 14:25:00,57.8,29.6,30.41,NNW,348,2.0,5.0,34,0.00,,,0.00,Wunderground v.1.15,2013-12-11 20:25:00,
2013-12-11 14:30:00,57.7,30.2,30.41,NNW,346,2.0,5.0,35,0.00,,,0.00,Wunderground v.1.15,2013-12-11 20:30:00,
2013-12-11 14:35:00,57.5,30.0,30.41,North,360,3.0,5.0,35,0.00,,,0.00,Wunderground v.1.15,2013-12-11 20:35:00,
2013-12-11 14:45:00,57.0,32.9,30.41,NE,56,3.0,5.0,40,0.00,,,0.00,Wunderground v.1.15,2013-12-11 20:45:00,
2013-12-11 14:50:00,56.4,32.4,30.40,ENE,59,4.0,7.0,40,0.00,,,0.00,Wunderground v.1.15,2013-12-11 20:50:00,
2013-12-11 15:00:00,55.6,32.8,30.41,WNW,296,4.0,5.0,42,0.00,,,0.00,Wunderground v.1.15,2013-12-11 21:00:00,
2013-12-11 15:05:00,55.6,32.8,30.41,ENE,60,4.0,5.0,42,0.00,,,0.00,Wunderground v.1.15,2013-12-11 21:05:00,
2013-12-11 15:15:00,55.9,33.1,30.41,NE,47,3.0,5.0,42,0.00,,,0.00,Wunderground v.1.15,2013-12-11 21:15:00,
2013-12-11 15:20:00,56.0,32.6,30.41,ENE,61,3.0,3.0,41,0.00,,,0.00,Wunderground v.1.15,2013-12-11 21:20:00,
2013-12-11 15:25:00,55.9,32.5,30.41,NE,52,4.0,4.0,41,0.00,,,0.00,Wunderground v.1.15,2013-12-11 21:25:00,
2013-12-11 15:35:00,55.8,32.4,30.41,ENE,68,3.0,5.0,41,0.00,,,0.00,Wunderground v.1.15,2013-12-11 21:35:00,
2013-12-11 15:45:00,55.3,32.6,30.42,North,355,2.0,5.0,42,0.00,,,0.00,Wunderground v.1.15,2013-12-11 21:45:00,
2013-12-11 15:50:00,55.1,33.0,30.43,NNW,344,2.0,5.0,43,0.00,,,0.00,Wunderground v.1.15,2013-12-11 21:50:00,
2013-12-11 16:00:00,54.8,32.7,30.43,NNE,30,3.0,5.0,43,0.00,,,0.00,Wunderground v.1.15,2013-12-11 22:00:00,
2013-12-11 16:05:00,54.7,33.2,30.43,ENE,58,3.0,5.0,44,0.00,,,0.00,Wunderground v.1.15,2013-12-11 22:05:00,
2013-12-11 16:10:00,54.3,32.8,30.43,NNE,12,3.0,3.0,44,0.00,,,0.00,Wunderground v.1.15,2013-12-11 22:10:00,
2013-12-11 16:15:00,53.9,32.5,30.43,NE,46,3.0,4.0,44,0.00,,,0.00,Wunderground v.1.15,2013-12-11 22:15:00,
2013-12-11 16:20:00,53.4,32.0,30.43,NNE,30,3.0,5.0,44,0.00,,,0.00,Wunderground v.1.15,2013-12-11 22:20:00,
2013-12-11 16:25:00,52.8,32.0,30.44,NNW,340,4.0,5.0,45,0.00,,,0.00,Wunderground v.1.15,2013-12-11 22:25:00,
2013-12-11 16:35:00,52.0,31.8,30.45,ENE,62,3.0,5.0,46,0.00,,,0.00,Wunderground v.1.15,2013-12-11 22:35:00,
2013-12-11 16:45:00,51.4,31.8,30.45,North,5,3.0,4.0,47,0.00,,,0.00,Wunderground v.1.15,2013-12-11 22:45:00,
2013-12-11 16:50:00,51.1,31.6,30.45,NNE,21,3.0,5.0,47,0.00,,,0.00,Wunderground v.1.15,2013-12-11 22:50:00,
2013-12-11 17:00:00,50.6,31.6,30.46,NNE,33,3.0,3.0,48,0.00,,,0.00,Wunderground v.1.15,2013-12-11 23:00:00,
2013-12-11 17:05:00,50.3,31.8,30.46,WNW,303,2.0,5.0,49,0.00,,,0.00,Wunderground v.1.15,2013-12-11 23:05:00,
2013-12-11 17:10:00,50.0,31.6,30.47,NE,42,2.0,2.0,49,0.00,,,0.00,Wunderground v.1.15,2013-12-11 23:10:00,
2013-12-11 17:20:00,49.5,31.6,30.47,North,360,2.0,2.0,50,0.00,,,0.00,Wunderground v.1.15,2013-12-11 23:20:00,
2013-12-11 17:25:00,49.2,31.8,30.47,NNE,23,1.0,5.0,51,0.00,,,0.00,Wunderground v.1.15,2013-12-11 23:25:00,
2013-12-11 17:30:00,48.9,32.0,30.47,NNE,19,0.0,5.0,52,0.00,,,0.00,Wunderground v.1.15,2013-12-11 23:30:00,
2013-12-11 17:35:00,48.6,31.8,30.47,NNE,16,0.0,5.0,52,0.00,,,0.00,Wunderground v.1.15,2013-12-11 23:35:00,
2013-12-11 17:45:00,48.0,31.7,30.47,NNW,338,0.0,5.0,53,0.00,,,0.00,Wunderground v.1.15,2013-12-11 23:45:00,
2013-12-11 17:50:00,47.7,31.9,30.47,North,355,0.0,5.0,54,0.00,,,0.00,Wunderground v.1.15,2013-12-11 23:50:00,
2013-12-11 18:00:00,47.2,31.4,30.47,North,355,0.0,5.0,54,0.00,,,0.00,Wunderground v.1.15,2013-12-12 00:00:00,
2013-12-11 18:05:00,47.0,31.7,30.48,North,355,0.0,5.0,55,0.00,,,0.00,Wunderground v.1.15,2013-12-12 00:05:00,
2013-12-11 18:15:00,46.6,31.3,30.49,North,355,0.0,5.0,55,0.00,,,0.00,Wunderground v.1.15,2013-12-12 00:15:00,
2013-12-11 18:20:00,46.3,31.4,30.49,NNW,342,0.0,5.0,56,0.00,,,0.00,Wunderground v.1.15,2013-12-12 00:20:00,
2013-12-11 18:25:00,46.1,31.7,30.50,NNW,334,1.0,5.0,57,0.00,,,0.00,Wunderground v.1.15,2013-12-12 00:25:00,
2013-12-11 18:30:00,46.1,31.7,30.50,North,5,2.0,2.0,57,0.00,,,0.00,Wunderground v.1.15,2013-12-12 00:30:00,
2013-12-11 18:35:00,46.0,31.6,30.51,North,5,1.0,5.0,57,0.00,,,0.00,Wunderground v.1.15,2013-12-12 00:35:00,
2013-12-11 18:45:00,45.6,32.1,30.51,North,360,0.0,5.0,59,0.00,,,0.00,Wunderground v.1.15,2013-12-12 00:45:00,
2013-12-11 18:50:00,45.6,31.7,30.51,North,360,0.0,5.0,58,0.00,,,0.00,Wunderground v.1.15,2013-12-12 00:50:00,
2013-12-11 18:55:00,45.4,31.9,30.51,North,360,0.0,5.0,59,0.00,,,0.00,Wunderground v.1.15,2013-12-12 00:55:00,
2013-12-11 19:00:00,45.2,31.7,30.51,North,360,0.0,5.0,59,0.00,,,0.00,Wunderground v.1.15,2013-12-12 01:00:00,
2013-12-11 19:05:00,45.1,32.0,30.52,North,360,0.0,5.0,60,0.00,,,0.00,Wunderground v.1.15,2013-12-12 01:05:00,
2013-12-11 19:15:00,44.8,31.8,30.52,North,360,0.0,5.0,60,0.00,,,0.00,Wunderground v.1.15,2013-12-12 01:15:00,
2013-12-11 19:20:00,44.6,31.6,30.53,North,360,0.0,5.0,60,0.00,,,0.00,Wunderground v.1.15,2013-12-12 01:20:00,
2013-12-11 19:25:00,44.4,31.8,30.53,North,360,0.0,5.0,61,0.00,,,0.00,Wunderground v.1.15,2013-12-12 01:25:00,
2013-12-11 19:30:00,44.2,31.6,30.53,North,360,0.0,5.0,61,0.00,,,0.00,Wunderground v.1.15,2013-12-12 01:30:00,
2013-12-11 19:35:00,44.1,31.5,30.53,North,360,0.0,5.0,61,0.00,,,0.00,Wunderground v.1.15,2013-12-12 01:35:00,
2013-12-11 19:45:00,43.8,31.6,30.53,North,360,0.0,5.0,62,0.00,,,0.00,Wunderground v.1.15,2013-12-12 01:45:00,
2013-12-11 19:50:00,43.6,31.8,30.54,North,360,0.0,5.0,63,0.00,,,0.00,Wunderground v.1.15,2013-12-12 01:50:00,
2013-12-11 19:55:00,43.4,31.2,30.54,North,360,0.0,5.0,62,0.00,,,0.00,Wunderground v.1.15,2013-12-12 01:55:00,
2013-12-11 20:00:00,43.4,31.6,30.55,North,360,0.0,5.0,63,0.00,,,0.00,Wunderground v.1.15,2013-12-12 02:00:00,
2013-12-11 20:10:00,42.9,31.6,30.55,North,360,0.0,5.0,64,0.00,,,0.00,Wunderground v.1.15,2013-12-12 02:10:00,
2013-12-11 20:15:00,42.5,31.9,30.55,North,360,0.0,5.0,66,0.00,,,0.00,Wunderground v.1.15,2013-12-12 02:15:00,
2013-12-11 20:20:00,41.9,31.4,30.55,North,360,0.0,5.0,66,0.00,,,0.00,Wunderground v.1.15,2013-12-12 02:20:00,
2013-12-11 20:25:00,41.5,31.4,30.55,NW,314,0.0,5.0,67,0.00,,,0.00,Wunderground v.1.15,2013-12-12 02:25:00,
2013-12-11 20:30:00,41.5,31.4,30.55,NW,325,1.0,5.0,67,0.00,,,0.00,Wunderground v.1.15,2013-12-12 02:30:00,
2013-12-11 20:35:00,41.9,31.7,30.56,NNW,341,1.0,5.0,67,0.00,,,0.00,Wunderground v.1.15,2013-12-12 02:35:00,
2013-12-11 20:45:00,42.3,31.4,30.56,NNW,338,1.0,5.0,65,0.00,,,0.00,Wunderground v.1.15,2013-12-12 02:45:00,
2013-12-11 20:55:00,42.5,31.6,30.56,NNE,12,2.0,3.0,65,0.00,,,0.00,Wunderground v.1.15,2013-12-12 02:55:00,
2013-12-11 21:00:00,42.4,31.5,30.56,NNE,15,2.0,5.0,65,0.00,,,0.00,Wunderground v.1.15,2013-12-12 03:00:00,
2013-12-11 21:05:00,42.3,31.4,30.56,North,350,1.0,5.0,65,0.00,,,0.00,Wunderground v.1.15,2013-12-12 03:05:00,
2013-12-11 21:15:00,42.1,31.2,30.57,North,5,1.0,5.0,65,0.00,,,0.00,Wunderground v.1.15,2013-12-12 03:15:00,
2013-12-11 21:20:00,42.0,31.5,30.57,NNW,348,1.0,5.0,66,0.00,,,0.00,Wunderground v.1.15,2013-12-12 03:20:00,
2013-12-11 21:25:00,41.9,31.4,30.57,North,5,1.0,5.0,66,0.00,,,0.00,Wunderground v.1.15,2013-12-12 03:25:00,
2013-12-11 21:30:00,41.7,31.2,30.57,NNW,331,1.0,5.0,66,0.00,,,0.00,Wunderground v.1.15,2013-12-12 03:30:00,
2013-12-11 21:35:00,41.6,31.4,30.57,North,355,2.0,5.0,67,0.00,,,0.00,Wunderground v.1.15,2013-12-12 03:35:00,
2013-12-11 21:40:00,41.4,31.3,30.57,NNE,22,2.0,2.0,67,0.00,,,0.00,Wunderground v.1.15,2013-12-12 03:40:00,
2013-12-11 21:45:00,41.3,31.2,30.57,North,355,2.0,5.0,67,0.00,,,0.00,Wunderground v.1.15,2013-12-12 03:45:00,
2013-12-11 21:55:00,41.2,31.1,30.57,North,350,2.0,3.0,67,0.00,,,0.00,Wunderground v.1.15,2013-12-12 03:55:00,
2013-12-11 22:05:00,40.9,30.8,30.58,North,350,3.0,5.0,67,0.00,,,0.00,Wunderground v.1.15,2013-12-12 04:05:00,
2013-12-11 22:10:00,40.9,31.1,30.58,NNW,348,3.0,3.0,68,0.00,,,0.00,Wunderground v.1.15,2013-12-12 04:10:00,
2013-12-11 22:20:00,40.7,31.0,30.59,North,5,3.0,3.0,68,0.00,,,0.00,Wunderground v.1.15,2013-12-12 04:20:00,
2013-12-11 22:25:00,40.5,31.1,30.59,NNW,333,4.0,6.0,69,0.00,,,0.00,Wunderground v.1.15,2013-12-12 04:25:00,
2013-12-11 22:35:00,40.3,30.9,30.59,NNW,346,5.0,6.0,69,0.00,,,0.00,Wunderground v.1.15,2013-12-12 04:35:00,
2013-12-11 22:45:00,39.9,30.9,30.58,NE,36,4.0,5.0,70,0.00,,,0.00,Wunderground v.1.15,2013-12-12 04:45:00,
2013-12-11 22:50:00,39.7,30.7,30.58,NE,34,2.0,2.0,70,0.00,,,0.00,Wunderground v.1.15,2013-12-12 04:50:00,
2013-12-11 23:00:00,39.1,30.5,30.58,NNE,26,1.0,5.0,71,0.00,,,0.00,Wunderground v.1.15,2013-12-12 05:00:00,
2013-12-11 23:05:00,38.8,30.5,30.58,North,355,1.0,5.0,72,0.00,,,0.00,Wunderground v.1.15,2013-12-12 05:05:00,
2013-12-11 23:10:00,38.4,30.2,30.58,North,360,1.0,5.0,72,0.00,,,0.00,Wunderground v.1.15,2013-12-12 05:10:00,
2013-12-11 23:15:00,38.2,30.3,30.59,NNW,336,1.0,5.0,73,0.00,,,0.00,Wunderground v.1.15,2013-12-12 05:15:00,
2013-12-11 23:20:00,38.0,30.1,30.60,NNW,342,1.0,5.0,73,0.00,,,0.00,Wunderground v.1.15,2013-12-12 05:20:00,
2013-12-11 23:25:00,37.9,30.0,30.59,NNW,346,1.0,5.0,73,0.00,,,0.00,Wunderground v.1.15,2013-12-12 05:25:00,
2013-12-11 23:35:00,37.3,30.1,30.59,NNW,336,1.0,5.0,75,0.00,,,0.00,Wunderground v.1.15,2013-12-12 05:35:00,
2013-12-11 23:40:00,37.0,30.1,30.59,NNW,330,2.0,5.0,76,0.00,,,0.00,Wunderground v.1.15,2013-12-12 05:40:00,
2013-12-11 23:45:00,36.9,30.0,30.59,NNE,13,2.0,5.0,76,0.00,,,0.00,Wunderground v.1.15,2013-12-12 05:45:00,
2013-12-11 23:50:00,36.9,30.0,30.59,NNW,342,2.0,2.0,76,0.00,,,0.00,Wunderground v.1.15,2013-12-12 05:50:00,